EW3770 Weather Reports


time (UTC)temp
C
wind
direction
speed
KPH
gust
KPH
rain 1hr
cm
rain 24hr
cm
rain mn
cm
humidity
%
barometer
mb
20211205103004 6 165 4.8 9.7 0.00 0.00 0.00 62 1019.8
20211205102004 6 187 4.8 8.0 0.00 0.00 0.00 63 1019.8
20211205101004 6 186 4.8 9.7 0.00 0.00 0.00 63 1019.8
20211205100003 6 183 4.8 9.7 0.00 0.00 0.00 64 1019.8
20211205095004 6 165 4.8 8.0 0.00 0.00 0.00 63 1019.6
20211205094003 6 165 4.8 8.0 0.00 0.00 0.00 63 1019.6
20211205093004 6 161 4.8 14.5 0.00 0.00 0.00 64 1019.7
20211205092004 6 168 4.8 9.7 0.00 0.00 0.00 64 1019.7
20211205091004 6 169 3.2 8.0 0.00 0.00 0.00 65 1019.5
20211205090004 6 161 4.8 8.0 0.00 0.00 0.00 66 1019.7
20211205085004 6 159 4.8 8.0 0.00 0.00 0.00 66 1019.5
20211205084003 6 165 4.8 9.7 0.00 0.00 0.00 66 1019.7
20211205083004 6 169 4.8 11.3 0.00 0.00 0.00 66 1019.6
20211205082013 6 159 4.8 12.9 0.00 0.00 0.00 66 1019.7
20211205081004 5 166 3.2 8.0 0.00 0.00 0.00 67 1019.7
20211205080004 6 160 3.2 8.0 0.00 0.00 0.00 67 1019.9
20211205075004 6 160 4.8 9.7 0.00 0.00 0.00 67 1019.9
20211205074004 6 146 3.2 6.4 0.00 0.00 0.00 67 1020.1
20211205073004 6 144 4.8 11.3 0.00 0.00 0.00 67 1020.3
20211205072003 5 143 4.8 8.0 0.00 0.00 0.00 69 1020.2
20211205071003 5 155 4.8 12.9 0.00 0.00 0.00 71 1020.5
20211205070004 3 181 4.8 8.0 0.00 0.00 0.00 76 1020.5
20211205065004 3 222 4.8 9.7 0.00 0.00 0.00 76 1020.6
20211205064004 3 213 1.6 6.4 0.00 0.00 0.00 77 1020.5
20211205063003 2 212 1.6 3.2 0.00 0.00 0.00 78 1020.5
20211205062003 2 212 1.6 6.4 0.00 0.00 0.00 77 1020.4
20211205061003 2 212 3.2 4.8 0.00 0.00 0.00 77 1020.5
20211205060004 2 212 3.2 6.4 0.00 0.00 0.00 77 1020.7
20211205055004 2 212 1.6 4.8 0.00 0.00 0.00 76 1020.8
20211205054004 2 212 1.6 3.2 0.00 0.00 0.00 76 1021.0
20211205053004 3 212 4.8 6.4 0.00 0.00 0.00 76 1021.2
20211205052004 3 210 4.8 8.0 0.00 0.00 0.00 77 1021.3
20211205051004 2 50 3.2 6.4 0.00 0.00 0.00 75 1021.5
20211205050004 3 48 3.2 6.4 0.00 0.00 0.00 74 1021.5
20211205045004 3 48 1.6 6.4 0.00 0.00 0.00 74 1021.6
20211205044004 3 48 1.6 3.2 0.00 0.00 0.00 72 1021.5
20211205043004 3 48 0.0 3.2 0.00 0.00 0.00 70 1021.4
20211205042003 4 48 1.6 3.2 0.00 0.00 0.00 69 1021.3
20211205041003 5 48 3.2 6.4 0.00 0.00 0.00 67 1021.4
20211205040004 5 48 1.6 4.8 0.00 0.00 0.00 66 1021.5
20211205035004 5 24 1.6 6.4 0.00 0.00 0.00 65 1021.4
20211205034004 6 337 1.6 4.8 0.00 0.00 0.00 63 1021.2
20211205033003 6 335 3.2 8.0 0.00 0.00 0.00 62 1021.1
20211205032004 7 84 3.2 6.4 0.00 0.00 0.00 60 1021.2
20211205031004 8 106 3.2 9.7 0.00 0.00 0.00 57 1020.9
20211205030004 8 162 3.2 11.3 0.00 0.00 0.00 57 1020.5
20211205025003 8 157 3.2 8.0 0.00 0.00 0.00 58 1020.2
20211205024004 8 163 3.2 8.0 0.00 0.00 0.00 58 1020.2
20211205023004 8 189 3.2 6.4 0.00 0.00 0.00 57 1020.2
20211205022004 8 162 3.2 8.0 0.00 0.00 0.00 58 1020.1
20211205021004 8 169 3.2 8.0 0.00 0.00 0.00 58 1020.1
20211205020003 8 175 3.2 9.7 0.00 0.00 0.00 58 1020.1
20211205015004 8 171 3.2 6.4 0.00 0.00 0.00 58 1020.2
20211205014004 8 180 3.2 4.8 0.00 0.00 0.00 58 1020.0
20211205013004 7 174 3.2 8.0 0.00 0.00 0.00 59 1020.0
20211205012004 7 166 1.6 8.0 0.00 0.00 0.00 59 1020.0
20211205011004 8 164 1.6 3.2 0.00 0.00 0.00 58 1020.2
20211205010004 8 163 1.6 3.2 0.00 0.00 0.00 58 1020.3
20211205005003 8 163 1.6 6.4 0.00 0.00 0.00 57 1020.5
20211205004004 8 159 3.2 6.4 0.00 0.00 0.00 57 1020.4
20211205003004 8 157 1.6 4.8 0.00 0.00 0.00 55 1020.5
20211205002004 8 157 1.6 3.2 0.00 0.00 0.00 54 1020.5
20211205001004 9 157 1.6 3.2 0.00 0.00 0.00 53 1020.6
20211205000003 10 152 1.6 4.8 0.00 0.00 0.00 52 1020.7
20211204235003 10 136 0.0 3.2 0.00 0.00 0.00 50 1020.7
20211204234004 10 136 0.0 3.2 0.00 0.00 0.00 49 1020.6
20211204233004 11 102 1.6 4.8 0.00 0.00 0.00 48 1020.7
20211204232003 11 120 1.6 4.8 0.00 0.00 0.00 48 1020.6
20211204231003 11 19 1.6 4.8 0.00 0.00 0.00 47 1020.7
20211204230004 12 137 1.6 8.0 0.00 0.00 0.00 46 1020.8
20211204225004 12 136 1.6 6.4 0.00 0.00 0.00 45 1020.6
20211204224004 12 137 1.6 4.8 0.00 0.00 0.00 46 1020.7
20211204223004 12 88 1.6 3.2 0.00 0.00 0.00 46 1020.8
20211204222004 12 150 3.2 8.0 0.00 0.00 0.00 45 1020.7
20211204221004 12 148 1.6 6.4 0.00 0.00 0.00 45 1020.7
20211204220004 12 125 1.6 6.4 0.00 0.00 0.00 45 1020.9
20211204215003 12 128 1.6 6.4 0.00 0.00 0.00 46 1020.9
20211204214003 12 37 3.2 9.7 0.00 0.00 0.00 45 1021.0
20211204213004 12 360 1.6 6.4 0.00 0.00 0.00 46 1021.2
20211204212004 12 112 1.6 6.4 0.00 0.00 0.00 46 1021.4
20211204211004 12 66 3.2 8.0 0.00 0.00 0.00 47 1021.4
20211204210003 11 72 1.6 6.4 0.00 0.00 0.00 47 1021.6
20211204205003 11 30 1.6 6.4 0.00 0.00 0.00 47 1021.8
20211204204004 11 87 3.2 8.0 0.00 0.00 0.00 48 1021.8
20211204203004 11 112 1.6 6.4 0.00 0.00 0.00 49 1021.7
20211204202003 11 114 3.2 9.7 0.00 0.00 0.00 49 1022.0
20211204201004 11 117 3.2 6.4 0.00 0.00 0.00 50 1022.0
20211204200004 11 118 4.8 9.7 0.00 0.00 0.00 50 1022.1
20211204195004 10 120 6.4 12.9 0.00 0.00 0.00 51 1022.1
20211204194004 10 124 4.8 12.9 0.00 0.00 0.00 50 1022.2
20211204193004 10 127 9.7 16.1 0.00 0.00 0.00 52 1022.3
20211204192004 10 135 8.0 19.3 0.00 0.00 0.00 50 1022.3
20211204191004 11 129 8.0 17.7 0.00 0.00 0.00 49 1022.3
20211204190003 11 137 6.4 16.1 0.00 0.00 0.00 50 1022.4
20211204185004 11 136 6.4 16.1 0.00 0.00 0.00 50 1022.5
20211204184003 10 145 6.4 17.7 0.00 0.00 0.00 49 1022.6
20211204183004 10 143 4.8 14.5 0.00 0.00 0.00 51 1022.7
20211204182004 10 144 4.8 20.9 0.00 0.00 0.00 52 1022.8
20211204181003 10 150 4.8 16.1 0.00 0.00 0.00 52 1022.9
20211204180004 9 151 4.8 11.3 0.00 0.00 0.00 55 1023.0
20211204175004 9 142 4.8 17.7 0.00 0.00 0.00 55 1023.1
20211204174004 8 147 4.8 12.9 0.00 0.00 0.00 56 1023.2
20211204173004 8 142 4.8 11.3 0.00 0.00 0.00 58 1023.3
20211204172003 8 147 4.8 12.9 0.00 0.00 0.00 57 1023.4
20211204171003 7 144 4.8 14.5 0.00 0.00 0.00 59 1023.4
20211204170004 7 154 4.8 12.9 0.00 0.00 0.00 61 1023.4
20211204165003 7 180 3.2 14.5 0.00 0.00 0.00 64 1023.3
20211204164004 6 143 1.6 8.0 0.00 0.00 0.00 66 1023.4
20211204163004 6 133 1.6 6.4 0.00 0.00 0.00 69 1023.4
20211204162004 5 159 1.6 8.0 0.00 0.00 0.00 73 1023.4
20211204161004 4 164 1.6 6.4 0.00 0.00 0.00 76 1023.4
20211204160004 3 200 3.2 6.4 0.00 0.00 0.00 78 1023.2
20211204155003 3 210 3.2 4.8 0.00 0.00 0.00 81 1023.1
20211204154004 2 214 1.6 4.8 0.00 0.00 0.00 83 1023.3
20211204153005 1 218 1.6 3.2 0.00 0.00 0.00 83 1023.4
20211204152004 1 218 1.6 3.2 0.00 0.00 0.00 83 1023.6
20211204151003 1 187 4.8 9.7 0.00 0.00 0.00 82 1023.5
20211204150004 1 130 1.6 8.0 0.00 0.00 0.00 80 1023.5
20211204145004 1 121 0.0 3.2 0.00 0.00 0.00 81 1023.4
20211204144003 1 121 3.2 9.7 0.00 0.00 0.00 82 1023.3
20211204143003 1 124 4.8 12.9 0.00 0.00 0.00 82 1023.3
20211204142004 2 131 1.6 6.4 0.00 0.00 0.00 81 1023.2
20211204141004 2 168 3.2 4.8 0.00 0.00 0.00 81 1023.1
20211204140004 2 167 3.2 4.8 0.00 0.00 0.00 80 1023.0
20211204135004 2 131 1.6 4.8 0.00 0.00 0.00 80 1022.9
20211204134003 2 102 1.6 4.8 0.00 0.00 0.00 80 1022.7
20211204133003 2 153 1.6 6.4 0.00 0.00 0.00 79 1022.6
20211204132004 2 142 3.2 9.7 0.00 0.00 0.00 79 1022.6
20211204131004 2 121 1.6 6.4 0.00 0.00 0.00 79 1022.6
20211204130004 2 140 3.2 11.3 0.00 0.00 0.00 79 1022.5
20211204125004 3 135 3.2 12.9 0.00 0.00 0.00 80 1022.3
20211204124004 2 151 4.8 16.1 0.00 0.00 0.00 80 1022.2
20211204123003 2 148 4.8 9.7 0.00 0.00 0.00 80 1022.1
20211204122003 2 150 4.8 6.4 0.00 0.00 0.00 80 1021.9
20211204121003 2 164 4.8 8.0 0.00 0.00 0.00 81 1021.8
20211204120004 2 139 3.2 8.0 0.00 0.00 0.00 81 1021.9
20211204115004 2 144 3.2 6.4 0.00 0.00 0.00 83 1021.9
20211204114004 2 158 3.2 4.8 0.00 0.00 0.00 83 1021.9
20211204113004 2 183 3.2 6.4 0.00 0.00 0.00 84 1021.8
20211204112003 2 193 1.6 4.8 0.00 0.00 0.00 82 1021.9
20211204111003 2 193 1.6 3.2 0.00 0.00 0.00 82 1022.0
20211204110004 2 193 3.2 4.8 0.00 0.00 0.00 83 1022.1
20211204105004 2 198 3.2 6.4 0.00 0.00 0.00 85 1022.2
20211204104004 1 247 3.2 6.4 0.00 0.00 0.00 88 1022.3